Weather observations for the past three days for
Griffiss International Airport
Imperial (Metric)
Date Time (edt) Wind (mph) Vis. (mi.) Weather Sky Cond. Temperature (ºF) Relative Humidity Wind Chill (°F) Heat Index (°F) Pressure Precipitation (in)
Air Dwpt 6 hour altimeter (in) sea level (mb) 1 hr 3 hr 6 hr
Max. Min.
25 13:53 W 12 10.00 Fair CLR 82 55.9 82 63 41% 82 29.86 1010.8
25 12:53 W 8 10.00 Fair CLR 80.1 57.9 47% 81 29.88 1011.3
25 11:53 W 7 10.00 Fair CLR 78.1 55.9 47% 79 29.89 1011.8
25 10:53 Calm 10.00 Fair CLR 75 59 58% 77 29.92 1012.6
25 09:53 Vrbl 5 10.00 Fair CLR 72 60.1 66% 29.95 1013.7
25 08:53 NW 5 10.00 Fair CLR 68 60.1 76% 29.95 1014.0
25 07:53 Calm 10.00 Fair CLR 63 59 63 53.1 87% 29.93 1013.2
25 06:53 Calm 10.00 Fair CLR 57.9 55.9 93% 29.9 1012.3
25 05:53 Calm 10.00 Fair CLR 55 53.1 93% 29.92 1013.0
25 04:53 N 5 10.00 Fair CLR 55 53.1 93% 29.93 1013.2
25 03:53 Calm 10.00 Fair CLR 55.9 54 93% 29.92 1013.0
25 02:53 Calm 10.00 Fair CLR 55 54 96% 29.9 1012.3
25 01:53 Calm 10.00 Fair CLR 57 55 72 57 93% 29.89 1011.7
25 00:53 Calm 10.00 Fair CLR 59 55.9 90% 29.88 1011.5
24 23:53 NW 5 10.00 Fair CLR 60.1 55.9 86% 29.87 1011.3
24 22:53 W 6 10.00 Fair CLR 64 57 78% 29.86 1010.8
24 21:53 NW 5 10.00 Fair CLR 63 57.9 84% 29.84 1010.1
24 20:53 W 7 10.00 Fair CLR 66 59 78% 29.83 1009.9
24 19:53 W 9 10.00 Fair CLR 72 59 73.9 66.9 64% 29.82 1009.5
24 18:53 NW 10 10.00 A Few Clouds FEW055 FEW070 73.9 60.1 62% 29.8 1008.8
24 17:53 NW 9 10.00 A Few Clouds FEW050 FEW070 70 60.1 71% 29.79 1008.6
24 16:53 NW 20 G 29 10.00 Light Rain FEW017 BKN050 OVC065 72 59 64% 29.77 1007.7
24 15:53 NW 20 G 26 10.00 Overcast FEW034 SCT090 OVC110 70 57 64% 29.77 1007.6
24 14:53 NW 17 G 29 10.00 Overcast OVC095 68 55 63% 29.76 1007.4
24 13:53 NW 17 G 30 10.00 Overcast BKN037 BKN046 OVC080 68 55.9 68 62.1 65% 29.73 1006.5
24 12:53 NW 20 G 37 10.00 Overcast BKN030 BKN039 OVC055 66 55.9 70% 29.7 1005.4
24 11:53 NW 21 G 29 10.00 Overcast and Breezy BKN028 OVC034 64.9 57 76% 29.66 1004.2
24 10:53 W 15 G 28 10.00 Overcast FEW017 BKN022 OVC043 64.9 59 81% 29.63 1002.9
24 09:53 W 18 G 25 10.00 Overcast BKN016 OVC028 64.9 59 81% 29.6 1002.0
24 08:53 W 14 G 22 10.00 Overcast BKN012 OVC018 62.1 59 90% 29.6 1002.0
24 07:53 W 15 10.00 Overcast BKN014 OVC020 62.1 57.9 66.9 61 86% 29.59 1001.6 0.03
24 06:53 W 14 G 21 10.00 Overcast OVC013 61 57.9 90% 29.59 1001.5
24 05:53 W 10 10.00 Overcast BKN013 OVC055 62.1 59 90% 29.58 1001.1 0.01
24 04:53 W 8 10.00 Overcast BKN021 BKN026 OVC046 62.1 59 90% 29.57 1000.9 0.01 0.02
24 03:53 W 16 5.00 Rain Fog/Mist SCT021 BKN028 OVC047 62.1 59 90% 29.56 1000.5 0.01
24 02:53 W 15 G 26 10.00 Overcast OVC037 66 55.9 70% 29.55 1000.0
24 01:53 W 15 G 22 10.00 Overcast OVC036 66.9 55 79 66 66% 29.55 1000.2 0.03
24 00:53 W 20 G 30 10.00 Overcast FEW025 OVC038 66 57 73% 29.55 1000.2
23 23:53 W 15 10.00 Overcast OVC035 69.1 61 76% 29.53 999.4
23 22:53 NW 8 10.00 Mostly Cloudy SCT030 BKN038 BKN049 68 63 84% 29.51 998.9 0.03
23 21:53 NW 13 10.00 A Few Clouds FEW046 71.1 66 84% 29.5 998.4 0.03
23 20:53 SW 9 10.00 Mostly Cloudy FEW038 SCT046 BKN055 78.1 69.1 74% 80 29.47 997.2
23 19:53 NW 6 10.00 Mostly Cloudy SCT032 BKN050 77 71.1 86 75 82% 79 29.48 997.7 0.01
23 18:53 SW 9 G 18 10.00 Mostly Cloudy SCT028 SCT043 BKN060 79 70 74% 82 29.48 997.8
23 17:53 W 12 10.00 Mostly Cloudy BKN050 78.1 71.1 79% 80 29.5 998.3 0.01
23 16:53 SW 10 10.00 Mostly Cloudy FEW060 FEW080 BKN100 75.9 70 82% 77 29.52 999.1
23 15:53 SW 12 10.00 Overcast SCT049 BKN060 OVC075 82.9 69.1 63% 87 29.51 998.7
23 14:53 SW 12 10.00 Overcast BKN055 BKN070 OVC085 84 68 59% 87 29.51 998.7
23 13:53 SW 13 G 25 10.00 Fair CLR 86 69.1 86 78.1 57% 90 29.53 999.4
23 12:53 SW 12 10.00 A Few Clouds FEW095 86 71.1 61% 92 29.56 1000.4
23 11:53 S 10 10.00 Mostly Cloudy FEW080 BKN095 BKN110 82.9 71.1 67% 88 29.59 1001.2
23 10:53 S 9 10.00 Mostly Cloudy BKN090 82.9 70 65% 87 29.61 1002.0
23 09:53 S 6 10.00 A Few Clouds FEW110 82.9 71.1 67% 88 29.63 1002.6
23 08:53 S 7 10.00 Partly Cloudy SCT100 81 71.1 72% 85 29.66 1003.6
23 07:53 S 7 10.00 Overcast FEW080 OVC100 78.1 69.1 78.1 71.1 74% 80 29.68 1004.4 0.01
23 06:53 Calm 10.00 Overcast BKN080 OVC095 75 69.1 82% 75 29.69 1004.9
23 05:53 E 8 10.00 Overcast OVC090 73 69.1 87% 29.71 1005.5
23 04:53 E 8 10.00 Overcast SCT070 OVC095 72 68 87% 29.72 1006.0 0.01
23 03:53 E 8 10.00 Overcast BKN085 OVC120 71.1 68 90% 29.74 1006.6
23 02:53 E 9 10.00 Overcast BKN065 OVC090 71.1 68 90% 29.77 1007.5 0.01
23 01:53 E 8 10.00 Mostly Cloudy BKN110 71.1 68 80.1 71.1 90% 29.82 1009.3 0.03
23 00:53 E 9 10.00 A Few Clouds FEW100 72 69.1 91% 29.85 1010.2
22 23:53 E 7 10.00 Fair CLR 73.9 71.1 91% 29.86 1010.7
22 22:53 E 5 10.00 Overcast BKN075 OVC100 73.9 72 94% 29.88 1011.4 0.03
22 21:53 Calm 6.00 Rain Fog/Mist BKN070 OVC090 75 72 90% 74 29.9 1012.1 0.03
22 20:53 E 3 10.00 A Few Clouds FEW080 75.9 72 88% 76 29.89 1011.7
22 19:53 E 3 10.00 Fair CLR 80.1 72 84 79 76% 84 29.9 1012.1
22 18:53 Calm 10.00 Fair CLR 82 69.1 65% 85 29.9 1011.9
22 17:53 W 5 10.00 A Few Clouds FEW030 82.9 70 65% 87 29.91 1012.2
22 16:53 NW 6 10.00 A Few Clouds FEW030 82.9 70 65% 87 29.93 1013.1
22 15:53 Vrbl 7 10.00 Mostly Cloudy BKN026 BKN037 82.9 72 70% 88 29.95 1013.7
Date Time (edt) Wind (mph) Vis. (mi.) Weather Sky Cond. Air Dwpt Max. Min. Relative Humidity Wind Chill (°F) Heat Index (°F) altimeter (in) sea level (mb) 1 hr 3 hr 6 hr
6 hour
Temperature (ºF) Pressure Precipitation (in)